[[{"header":{"parameterUnit":"m.s-1","parameterCategory":1,"la1":30.2991,"la2":30.254,"lo1":-89.0895,"lo2":-89.0444,"dy":0.0017,"dx":0.0017,"nx":28,"ny":28,"refTime":"2025-07-25T21:00:00:Z","depth":0,"parameterNumber":2,"parameterNumberName":"U-component_of_WINDS"},"data":[0,0,0,0,0,0,0,0,0,0,0,0,0,0,0,0,0,0,0,0,0,0,0,0,0,0,0,0,0,0,0,0,0,0,0,0,0,0,0,0,0,0,0,0,0,0,0,0,0,0,0,0,0,0,0,0,0,0,-0.9883,-0.9883,0,-0.993,-0.993,-0.9931,-0.9945,-0.9945,-0.9944,-0.9944,-0.9993,-0.9994,-0.9996,0,0,0,0,0,0,0,0,0,0,0,0,0,-0.9806,-0.9807,-0.9883,-0.9883,-0.9884,-0.993,-0.993,-0.9931,-0.9945,-0.9945,-0.9944,-0.9944,-0.9992,-0.9994,-0.9996,0,0,0,0,0,0,0,0,0,0,0,0,0,-0.9845,-0.9808,-0.9882,-0.9896,-0.9898,-0.9929,-0.993,-0.9931,-0.9945,-0.9945,-0.9944,-0.9944,-0.9992,-0.9994,-0.9996,-1.0017,0,0,-1.0003,-1.0004,0,0,0,0,0,0,0,0,-0.9843,-0.9848,-0.9894,-0.9895,-0.9897,-0.9931,-0.9921,-0.996,-0.9945,-0.9927,-0.9944,-0.9944,-0.9973,-0.9976,-0.9986,-1.002,-1.0022,-1.0003,-1.0005,-1.0006,-1.0006,0,0,0,0,0,0,0,-0.984,-0.9846,-0.9901,-0.9894,-0.9897,-0.9901,-0.9906,-0.9929,-0.9951,-0.9929,-0.993,-0.9935,-0.9974,-0.9984,-0.9987,-1.0023,-1.0003,-1.0005,-1.0007,-1.0008,-1.0077,-1.0077,0,0,0,0,0,0,-0.9835,-0.9843,-0.99,-0.9903,-0.9869,-0.9902,-0.9908,-0.9921,-0.9951,-0.9955,-0.9936,-0.9936,-0.998,-0.9985,-0.9989,-1.0017,-1.0006,-1.0008,-1.0009,-1.0077,-1.0077,-1.0078,0,0,0,0,0,0,-0.9833,-0.984,-0.9898,-0.9873,-0.9881,-0.9904,-0.9918,-0.9922,-0.9932,-0.9956,-0.996,-0.9942,-0.998,-0.9986,-1.0011,-1.0018,-1.0009,-1.0011,-1.0076,-1.0077,-1.0077,-1.0071,0,0,0,0,0,0,-0.9831,-0.9839,-0.9847,-0.9873,-0.9882,-0.9918,-0.9919,-0.9923,-0.9936,-0.9937,-0.9963,-0.9967,-0.998,-1.0007,-1.0013,-1.0021,-1.0013,-1.0075,-1.0076,-1.0077,-1.0071,-1.0072,-1.0072,0,0,0,0,0,-0.9828,-0.9843,-0.9847,-0.9854,-0.9893,-0.9919,-0.9924,-0.9938,-0.9936,-0.9945,-0.9961,-0.9966,-1.0017,-1.0009,-1.0016,-1.0025,-1.0075,-1.0076,-1.0077,-1.007,-1.0071,-1.0072,0,0,0,0,0,0,-0.9817,-0.9847,-0.9852,-0.9876,-0.9895,-0.9921,-0.9932,-0.9939,-0.9958,-0.9958,-0.9975,-0.9981,-1.0005,-1.0018,-1.0009,-1.0048,-1.0046,-1.0048,-1.0039,-1.004,-1.0041,-1.0037,-1.0015,0,0,0,0,0,-0.9817,-0.9836,-0.9861,-0.988,-0.9889,-0.9909,-0.9921,-0.993,-0.995,-0.9958,-0.9976,-0.9995,-1.0016,-1.0028,-1.0048,-1.0073,-1.0079,-1.0083,-1.0083,-1.0084,-1.0086,-1.0101,-1.0103,-1.0081,-1.0081,-1.0081,0,0,-0.9818,-0.9837,-0.9847,-0.9878,-0.9894,-0.9913,-0.9915,-0.9935,-0.9949,-0.9961,-0.9986,-0.9999,-1.0022,-1.0047,-1.0059,-1.0058,-1.0093,-1.0085,-1.0085,-1.0087,-1.0102,-1.0104,-1.0106,-1.0082,-1.0082,-1.0082,0,0,-0.983,-0.9846,-0.9863,-0.9879,-0.9903,-0.9916,-0.992,-0.9946,-0.9955,-0.998,-0.999,-1.0007,-1.0041,-1.0058,-1.007,-1.0089,-1.0095,-1.0095,-1.0099,-1.0113,-1.0115,-1.0116,-1.0124,-1.0126,-1.0097,-1.0097,-1.0097,0,-0.9828,-0.9857,-0.9872,-0.9891,-0.9905,-0.9917,-0.9935,-0.995,-0.9979,-0.9988,-0.9987,-1.0031,-1.0047,-1.0076,-1.0081,-1.0091,-1.0097,-1.0092,-1.0113,-1.0115,-1.0117,-1.0124,-1.0126,-1.0097,-1.0097,-1.0097,-1.0097,0,-0.9854,-0.9874,-0.9885,-0.9913,-0.9928,-0.9947,-0.9965,-0.9978,-0.9987,-1.0,-1.0026,-1.0046,-1.007,-1.0078,-1.0086,-1.0109,-1.0108,-1.011,-1.0108,-1.0118,-1.0125,-1.0128,-1.0096,-1.0097,-1.0097,-1.0097,0,0,-0.986,-0.9896,-0.99,-0.9913,-0.994,-0.9956,-0.9976,-1.0,-1.0011,-1.0031,-1.0048,-1.0077,-1.008,-1.0094,-1.0105,-1.0117,-1.0131,-1.0118,-1.0119,-1.012,-1.0158,-1.0156,-1.0159,-1.0136,-1.0136,-1.0137,-1.0156,0,-0.9875,-0.991,-0.9925,-0.9954,-0.9972,-0.9984,-1.0002,-1.002,-1.0034,-1.0052,-1.0067,-1.0087,-1.0089,-1.0098,-1.011,-1.0127,-1.0139,-1.0125,-1.0152,-1.0153,-1.0146,-1.0162,-1.0161,-1.0178,-1.0159,-1.0159,-1.016,0,-0.9897,-0.9917,-0.9948,-0.9974,-0.9982,-0.9997,-1.0021,-1.0038,-1.006,-1.0069,-1.0086,-1.0095,-1.0117,-1.0114,-1.0145,-1.0135,-1.0147,-1.0157,-1.0158,-1.0161,-1.0157,-1.0166,-1.0184,-1.0186,-1.0164,-1.0163,-1.0163,0,-0.9899,-0.9934,-0.9957,-0.9968,-0.9998,-1.0009,-1.0022,-1.0043,-1.0057,-1.0078,-1.0087,-1.011,-1.0123,-1.014,-1.0156,-1.0153,-1.0186,-1.0184,-1.0194,-1.0194,-1.0201,-1.02,-1.022,-1.0208,-1.0208,-1.0208,-1.0208,0,-0.9915,-0.9933,-0.9958,-0.9972,-0.9994,-1.001,-1.0031,-1.0045,-1.0064,-1.0082,-1.0093,-1.011,-1.013,-1.0149,-1.0162,-1.0185,-1.0191,-1.0199,-1.0202,-1.0198,-1.0197,-1.0206,-1.0206,-1.0208,-1.0208,-1.0208,-1.0208,0,-0.992,-0.9938,-0.9964,-0.999,-0.9998,-1.0012,-1.0035,-1.005,-1.0064,-1.0086,-1.0092,-1.0114,-1.0137,-1.0155,-1.0185,-1.0194,-1.0219,-1.0222,-1.0211,-1.0213,-1.0223,-1.0222,-1.025,-1.0254,-1.0238,-1.0238,-1.0239,0,-0.9929,-0.9944,-0.9972,-0.9985,-0.9998,-1.0018,-1.0032,-1.0049,-1.0064,-1.009,-1.0102,-1.0126,-1.0146,-1.0182,-1.0201,-1.0224,-1.0228,-1.0237,-1.0232,-1.0228,-1.0229,-1.0228,-1.023,-1.0237,-1.0237,-1.0237,-1.0237,0,-0.9944,-0.9952,-0.9972,-0.9995,-1.0011,-1.003,-1.005,-1.0059,-1.008,-1.0096,-1.0119,-1.0135,-1.0166,-1.019,-1.0215,-1.0229,-1.0237,-1.0239,-1.0243,-1.0239,-1.0232,-1.0236,-1.0213,-1.0238,-1.0238,-1.0238,-1.0238,-1.0238,-0.9952,-0.9966,-0.9988,-1.001,-1.0026,-1.0044,-1.0059,-1.0075,-1.0095,-1.0121,-1.013,-1.0155,-1.0177,-1.0212,-1.0227,-1.0246,-1.0247,-1.0252,-1.0253,-1.0254,-1.0254,-1.0229,-1.0251,-1.0251,-1.0251,-1.0251,-1.0251,0,-0.9967,-0.9982,-1.0002,-1.0029,-1.0046,-1.0052,-1.0074,-1.0088,-1.011,-1.013,-1.0149,-1.0177,-1.02,-1.0221,-1.0246,-1.0258,-1.0262,-1.0263,-1.0263,-1.0266,-1.0252,-1.0247,-1.026,-1.026,-1.026,-1.026,-1.026,-1.026,-0.9978,-1.0001,-1.0012,-1.0044,-1.0059,-1.0083,-1.0095,-1.0112,-1.0128,-1.0158,-1.0178,-1.0191,-1.0212,-1.0238,-1.026,-1.0265,-1.0274,-1.0275,-1.0281,-1.0268,-1.0267,-1.0266,-1.0261,-1.0276,-1.0276,-1.0294,-1.0294,-1.0294]},{"header":{"parameterUnit":"m.s-1","parameterCategory":1,"la1":30.2991,"la2":30.254,"lo1":-89.0895,"lo2":-89.0444,"dy":0.0017,"dx":0.0017,"nx":28,"ny":28,"refTime":"2025-07-25T21:00:00:Z","depth":0,"parameterNumber":3,"parameterNumberName":"V-component_of_WINDS"},"data":[0,0,0,0,0,0,0,0,0,0,0,0,0,0,0,0,0,0,0,0,0,0,0,0,0,0,0,0,0,0,0,0,0,0,0,0,0,0,0,0,0,0,0,0,0,0,0,0,0,0,0,0,0,0,0,0,0,0,4.703,4.7031,0,4.7088,4.7088,4.7089,4.7008,4.7005,4.7002,4.7,4.7056,4.706,4.7064,0,0,0,0,0,0,0,0,0,0,0,0,0,4.6844,4.6848,4.703,4.7031,4.7031,4.7088,4.7089,4.7089,4.7009,4.7005,4.7002,4.6998,4.7054,4.7059,4.7064,0,0,0,0,0,0,0,0,0,0,0,0,0,4.6916,4.6849,4.703,4.6998,4.6996,4.7088,4.7089,4.7089,4.7009,4.7005,4.7001,4.6997,4.7053,4.7059,4.7065,4.719,0,0,4.7084,4.7087,0,0,0,0,0,0,0,0,4.6912,4.6923,4.7002,4.7,4.6998,4.7036,4.7043,4.7123,4.701,4.7004,4.7,4.6995,4.7053,4.7059,4.7079,4.7192,4.7195,4.7085,4.7088,4.7091,4.7093,0,0,0,0,0,0,0,4.6907,4.692,4.7053,4.7003,4.7001,4.6979,4.6984,4.7058,4.7052,4.7004,4.6999,4.7007,4.7051,4.7073,4.7079,4.7196,4.7084,4.709,4.7094,4.7096,4.741,4.7414,0,0,0,0,0,0,4.6906,4.6916,4.7051,4.7054,4.6944,4.6986,4.6992,4.7028,4.7051,4.705,4.701,4.7003,4.7064,4.7072,4.7081,4.7225,4.7091,4.7097,4.7101,4.7405,4.7411,4.7416,0,0,0,0,0,0,4.6903,4.6919,4.7049,4.6984,4.6999,4.6994,4.7035,4.7032,4.7054,4.7055,4.7053,4.7035,4.7061,4.7072,4.7163,4.7226,4.71,4.7105,4.74,4.7407,4.7413,4.7518,0,0,0,0,0,0,4.6898,4.6919,4.6967,4.6986,4.7002,4.7131,4.7039,4.7036,4.7065,4.7056,4.7078,4.7077,4.7059,4.7154,4.7169,4.7233,4.711,4.7394,4.7403,4.7411,4.7508,4.7527,4.7543,0,0,0,0,0,4.6892,4.6995,4.697,4.6987,4.7064,4.7135,4.7144,4.7122,4.7071,4.7119,4.7119,4.7076,4.7218,4.7164,4.718,4.7247,4.739,4.7401,4.7411,4.75,4.7523,4.7543,0,0,0,0,0,0,4.6984,4.6997,4.697,4.7082,4.7108,4.7121,4.7181,4.7148,4.7188,4.7178,4.7147,4.7153,4.7249,4.7257,4.7197,4.7367,4.7295,4.7309,4.7358,4.7379,4.7397,4.7392,4.7116,0,0,0,0,0,4.7017,4.7076,4.7083,4.7181,4.7196,4.7186,4.7217,4.7197,4.7222,4.7233,4.724,4.7265,4.7314,4.7348,4.7394,4.7509,4.7511,4.7563,4.7581,4.7595,4.7607,4.7665,4.7687,4.745,4.745,4.7449,0,0,4.7087,4.7101,4.714,4.72,4.7218,4.7277,4.7196,4.7263,4.7305,4.7243,4.7327,4.7334,4.7359,4.7462,4.7508,4.7472,4.7673,4.7608,4.762,4.7624,4.7678,4.77,4.772,4.7457,4.7455,4.7454,0,0,4.7243,4.7262,4.7343,4.7363,4.739,4.7383,4.7403,4.7421,4.7422,4.7507,4.746,4.751,4.7597,4.7616,4.7637,4.7798,4.7759,4.7814,4.7904,4.7961,4.798,4.7996,4.805,4.8071,4.7826,4.7826,4.7826,0,4.7326,4.7414,4.739,4.7459,4.7485,4.7431,4.7512,4.7532,4.7573,4.7592,4.7551,4.7657,4.7671,4.7776,4.7815,4.7835,4.7854,4.781,4.7979,4.7996,4.801,4.8062,4.8083,4.7833,4.7832,4.7831,4.7831,0,4.7513,4.7574,4.7637,4.7678,4.7711,4.7787,4.7771,4.7808,4.7785,4.7781,4.7866,4.7881,4.7927,4.7951,4.793,4.8052,4.8028,4.7985,4.7911,4.804,4.8087,4.8107,4.7841,4.7839,4.7837,4.7836,0,0,4.7729,4.7754,4.7777,4.7793,4.7819,4.7865,4.7936,4.7982,4.8012,4.8042,4.8099,4.8173,4.8131,4.8156,4.8136,4.8186,4.8308,4.8135,4.8135,4.8165,4.844,4.8471,4.8495,4.8283,4.8287,4.829,4.8437,0,4.7883,4.8007,4.7985,4.8104,4.8159,4.8107,4.8168,4.819,4.8187,4.8232,4.8229,4.828,4.8224,4.8237,4.8285,4.8284,4.8363,4.8273,4.8333,4.8336,4.8326,4.852,4.8554,4.8692,4.8456,4.8459,4.8461,0,4.8079,4.8115,4.824,4.8254,4.8276,4.8332,4.8369,4.8414,4.8435,4.843,4.8456,4.8426,4.8494,4.8421,4.8513,4.8452,4.8476,4.8478,4.8483,4.8486,4.8405,4.8525,4.8735,4.8755,4.8491,4.8488,4.8486,0,4.8221,4.8301,4.8385,4.8401,4.842,4.8459,4.8469,4.8487,4.8514,4.8547,4.8564,4.8605,4.8627,4.8659,4.8639,4.8589,4.8733,4.866,4.8728,4.8729,4.8759,4.8757,4.8973,4.8779,4.8779,4.8778,4.8778,0,4.8393,4.8471,4.8448,4.85,4.8583,4.8557,4.8641,4.8644,4.8659,4.8709,4.8667,4.8714,4.8687,4.8731,4.8717,4.8793,4.8804,4.8799,4.8794,4.8802,4.8802,4.8815,4.8804,4.8784,4.8783,4.8782,4.8781,0,4.8565,4.8554,4.8641,4.8651,4.8656,4.8717,4.8725,4.8771,4.8765,4.8828,4.8841,4.8832,4.8881,4.8865,4.8919,4.8909,4.9005,4.8989,4.8998,4.8993,4.9061,4.9054,4.9291,4.932,4.9109,4.9112,4.9113,0,4.8675,4.8733,4.8749,4.8779,4.8792,4.8842,4.8869,4.8845,4.8875,4.8902,4.8945,4.8991,4.9026,4.9107,4.9104,4.9144,4.9127,4.9207,4.9132,4.9137,4.9124,4.912,4.9124,4.9221,4.9224,4.9226,4.9227,0,4.887,4.8861,4.8903,4.8942,4.8976,4.9006,4.9031,4.9058,4.9035,4.907,4.912,4.9148,4.9202,4.9247,4.9282,4.929,4.9254,4.9251,4.9268,4.9276,4.9278,4.9275,4.9036,4.9245,4.9244,4.9242,4.9241,4.9241,4.9013,4.906,4.9078,4.9125,4.9142,4.9166,4.9209,4.9208,4.925,4.9292,4.9274,4.9331,4.9348,4.9392,4.9405,4.9448,4.9417,4.9443,4.9449,4.9455,4.9463,4.9273,4.9455,4.9454,4.9454,4.9453,4.9453,0,4.9203,4.9211,4.9255,4.9291,4.9328,4.9291,4.9317,4.9349,4.94,4.9419,4.9454,4.951,4.9553,4.9553,4.9592,4.9626,4.961,4.9637,4.9633,4.9635,4.949,4.9469,4.9649,4.9649,4.9649,4.9649,4.9649,4.9649,4.9306,4.9384,4.9376,4.9461,4.9468,4.9523,4.9541,4.9562,4.9577,4.9641,4.9676,4.9676,4.9686,4.9726,4.9763,4.9761,4.9776,4.9809,4.9801,4.9665,4.9645,4.9627,4.9607,4.9813,4.9813,4.9942,4.9943,4.9944]}]]